Year,Month,Day,Hour,Minute,Value (Times are PST for temperature in C)
2016,08,16,00,00,16.10
2016,08,16,00,01,16.10
2016,08,16,00,02,16.10
2016,08,16,00,03,16.00
2016,08,16,00,04,16.00
2016,08,16,00,05,16.00
2016,08,16,00,06,16.00
2016,08,16,00,07,15.90
2016,08,16,00,08,15.90
2016,08,16,00,09,15.90
2016,08,16,00,10,15.90
2016,08,16,00,11,15.90
2016,08,16,00,12,15.90
2016,08,16,00,13,15.90
2016,08,16,00,14,15.80
2016,08,16,00,15,15.80
2016,08,16,00,16,15.80
2016,08,16,00,17,15.80
2016,08,16,00,18,15.80
2016,08,16,00,19,15.70
2016,08,16,00,20,15.70
2016,08,16,00,21,15.70
2016,08,16,00,22,15.70
2016,08,16,00,23,15.60
2016,08,16,00,24,15.60
2016,08,16,00,25,15.60
2016,08,16,00,26,15.60
2016,08,16,00,27,15.50
2016,08,16,00,28,15.50
2016,08,16,00,29,15.50
2016,08,16,00,30,15.50
2016,08,16,00,31,15.40
2016,08,16,00,32,15.40
2016,08,16,00,33,15.40
2016,08,16,00,34,15.40
2016,08,16,00,35,15.40
2016,08,16,00,36,15.40
2016,08,16,00,37,15.40
2016,08,16,00,38,15.30
2016,08,16,00,39,15.30
2016,08,16,00,40,15.30
2016,08,16,00,41,15.30
2016,08,16,00,42,15.30
2016,08,16,00,43,15.30
2016,08,16,00,44,15.20
2016,08,16,00,45,15.20
2016,08,16,00,46,15.20
2016,08,16,00,47,15.20
2016,08,16,00,48,15.20
2016,08,16,00,49,15.20
2016,08,16,00,50,15.20
2016,08,16,00,51,15.20
2016,08,16,00,52,15.20
2016,08,16,00,53,15.20
2016,08,16,00,54,15.30
2016,08,16,00,55,15.30
2016,08,16,00,56,15.30
2016,08,16,00,57,15.30
2016,08,16,00,58,15.30
2016,08,16,00,59,15.30
2016,08,16,01,00,15.30
2016,08,16,01,01,15.30
2016,08,16,01,02,15.30
2016,08,16,01,03,15.30
2016,08,16,01,04,15.30
2016,08,16,01,05,15.30
2016,08,16,01,06,15.30
2016,08,16,01,07,15.30
2016,08,16,01,08,15.30
2016,08,16,01,09,15.30
2016,08,16,01,10,15.30
2016,08,16,01,11,15.30
2016,08,16,01,12,15.30
2016,08,16,01,13,15.30
2016,08,16,01,14,15.30
2016,08,16,01,15,15.30
2016,08,16,01,16,15.30
2016,08,16,01,17,15.30
2016,08,16,01,18,15.30
2016,08,16,01,19,15.30
2016,08,16,01,20,15.30
2016,08,16,01,21,15.30
2016,08,16,01,22,15.30
2016,08,16,01,23,15.40
2016,08,16,01,24,15.40
2016,08,16,01,25,15.40
2016,08,16,01,26,15.40
2016,08,16,01,27,15.40
2016,08,16,01,28,15.40
2016,08,16,01,29,15.40
2016,08,16,01,30,15.40
2016,08,16,01,31,15.40
2016,08,16,01,32,15.40
2016,08,16,01,33,15.40
2016,08,16,01,34,15.40
2016,08,16,01,35,15.40
2016,08,16,01,36,15.40
2016,08,16,01,37,15.40
2016,08,16,01,38,15.40
2016,08,16,01,39,15.40
2016,08,16,01,40,15.40
2016,08,16,01,41,15.40
2016,08,16,01,42,15.40
2016,08,16,01,43,15.40
2016,08,16,01,44,15.40
2016,08,16,01,45,15.40
2016,08,16,01,46,15.40
2016,08,16,01,47,15.40
2016,08,16,01,48,15.40
2016,08,16,01,49,15.40
2016,08,16,01,50,15.40
2016,08,16,01,51,15.30
2016,08,16,01,52,15.30
2016,08,16,01,53,15.30
2016,08,16,01,54,15.30
2016,08,16,01,55,15.30
2016,08,16,01,56,15.30
2016,08,16,01,57,15.30
2016,08,16,01,58,15.30
2016,08,16,01,59,15.30
2016,08,16,02,00,15.20
2016,08,16,02,01,15.20
2016,08,16,02,02,15.20
2016,08,16,02,03,15.20
2016,08,16,02,04,15.20
2016,08,16,02,05,15.20
2016,08,16,02,06,15.20
2016,08,16,02,07,15.20
2016,08,16,02,08,15.10
2016,08,16,02,09,15.10
2016,08,16,02,10,15.10
2016,08,16,02,11,15.10
2016,08,16,02,12,15.10
2016,08,16,02,13,15.10
2016,08,16,02,14,15.10
2016,08,16,02,15,15.10
2016,08,16,02,16,15.10
2016,08,16,02,17,15.10
2016,08,16,02,18,15.10
2016,08,16,02,19,15.10
2016,08,16,02,20,15.10
2016,08,16,02,21,15.10
2016,08,16,02,22,15.00
2016,08,16,02,23,15.00
2016,08,16,02,24,15.00
2016,08,16,02,25,15.00
2016,08,16,02,26,15.00
2016,08,16,02,27,15.00
2016,08,16,02,28,15.00
2016,08,16,02,29,15.00
2016,08,16,02,30,15.00
2016,08,16,02,31,15.00
2016,08,16,02,32,15.00
2016,08,16,02,33,15.00
2016,08,16,02,34,15.00
2016,08,16,02,35,15.00
2016,08,16,02,36,15.00
2016,08,16,02,37,15.00
2016,08,16,02,38,15.00
2016,08,16,02,39,15.00
2016,08,16,02,40,15.00
2016,08,16,02,41,15.00
2016,08,16,02,42,15.00
2016,08,16,02,43,15.00
2016,08,16,02,44,15.00
2016,08,16,02,45,15.00
2016,08,16,02,46,15.00
2016,08,16,02,47,15.00
2016,08,16,02,48,15.00
2016,08,16,02,49,15.00
2016,08,16,02,50,15.00
2016,08,16,02,51,15.00
2016,08,16,02,52,15.00
2016,08,16,02,53,15.00
2016,08,16,02,54,15.00
2016,08,16,02,55,15.00
2016,08,16,02,56,15.00
2016,08,16,02,57,15.00
2016,08,16,02,58,15.00
2016,08,16,02,59,15.00
2016,08,16,03,00,15.00
2016,08,16,03,01,15.00
2016,08,16,03,02,15.00
2016,08,16,03,03,14.90
2016,08,16,03,04,14.90
2016,08,16,03,05,15.00
2016,08,16,03,06,15.00
2016,08,16,03,07,15.00
2016,08,16,03,08,15.00
2016,08,16,03,09,15.00
2016,08,16,03,10,15.00
2016,08,16,03,11,15.00
2016,08,16,03,12,15.00
2016,08,16,03,13,15.00
2016,08,16,03,14,15.00
2016,08,16,03,15,15.00
2016,08,16,03,16,15.00
2016,08,16,03,17,15.00
2016,08,16,03,18,15.00
2016,08,16,03,19,15.00
2016,08,16,03,20,15.00
2016,08,16,03,21,15.00
2016,08,16,03,22,15.00
2016,08,16,03,23,15.00
2016,08,16,03,24,15.00
2016,08,16,03,25,15.00
2016,08,16,03,26,15.00
2016,08,16,03,27,15.00
2016,08,16,03,28,15.00
2016,08,16,03,29,15.00
2016,08,16,03,30,15.00
2016,08,16,03,31,15.00
2016,08,16,03,32,15.00
2016,08,16,03,33,15.00
2016,08,16,03,34,15.00
2016,08,16,03,35,15.00
2016,08,16,03,36,15.00
2016,08,16,03,37,15.00
2016,08,16,03,38,15.00
2016,08,16,03,39,15.00
2016,08,16,03,40,15.00
2016,08,16,03,41,15.00
2016,08,16,03,42,15.00
2016,08,16,03,43,15.00
2016,08,16,03,44,15.00
2016,08,16,03,45,15.00
2016,08,16,03,46,15.00
2016,08,16,03,47,15.00
2016,08,16,03,48,15.00
2016,08,16,03,49,15.00
2016,08,16,03,50,15.00
2016,08,16,03,51,15.00
2016,08,16,03,52,15.00
2016,08,16,03,53,15.00
2016,08,16,03,54,14.90
2016,08,16,03,55,14.80
2016,08,16,03,56,14.80
2016,08,16,03,57,14.80
2016,08,16,03,58,14.70
2016,08,16,03,59,14.70
2016,08,16,04,00,14.70
2016,08,16,04,01,14.70
2016,08,16,04,02,14.70
2016,08,16,04,03,14.70
2016,08,16,04,04,14.70
2016,08,16,04,05,14.70
2016,08,16,04,06,14.70
2016,08,16,04,07,14.60
2016,08,16,04,08,14.60
2016,08,16,04,09,14.60
2016,08,16,04,10,14.60
2016,08,16,04,11,14.60
2016,08,16,04,12,14.60
2016,08,16,04,13,14.60
2016,08,16,04,14,14.60
2016,08,16,04,15,14.60
2016,08,16,04,16,14.50
2016,08,16,04,17,14.50
2016,08,16,04,18,14.50
2016,08,16,04,19,14.50
2016,08,16,04,20,14.50
2016,08,16,04,21,14.40
2016,08,16,04,22,14.50
2016,08,16,04,23,14.40
2016,08,16,04,24,14.40
2016,08,16,04,25,14.40
2016,08,16,04,26,14.40
2016,08,16,04,27,14.40
2016,08,16,04,28,14.40
2016,08,16,04,29,14.40
2016,08,16,04,30,14.40
2016,08,16,04,31,14.40
2016,08,16,04,32,14.40
2016,08,16,04,33,14.30
2016,08,16,04,34,14.30
2016,08,16,04,35,14.30
2016,08,16,04,36,14.30
2016,08,16,04,37,14.30
2016,08,16,04,38,14.30
2016,08,16,04,39,14.20
2016,08,16,04,40,14.20
2016,08,16,04,41,14.20
2016,08,16,04,42,14.20
2016,08,16,04,43,14.20
2016,08,16,04,44,14.20
2016,08,16,04,45,14.20
2016,08,16,04,46,14.10
2016,08,16,04,47,14.10
2016,08,16,04,48,14.10
2016,08,16,04,49,14.10
2016,08,16,04,50,14.10
2016,08,16,04,51,14.10
2016,08,16,04,52,14.10
2016,08,16,04,53,14.10
2016,08,16,04,54,14.10
2016,08,16,04,55,14.10
2016,08,16,04,56,14.10
2016,08,16,04,57,14.10
2016,08,16,04,58,14.10
2016,08,16,04,59,14.10
2016,08,16,05,00,14.10
2016,08,16,05,01,14.00
2016,08,16,05,02,14.00
2016,08,16,05,03,14.00
2016,08,16,05,04,14.00
2016,08,16,05,05,14.00
2016,08,16,05,06,14.00
2016,08,16,05,07,13.90
2016,08,16,05,08,13.90
2016,08,16,05,09,13.90
2016,08,16,05,10,13.90
2016,08,16,05,11,13.90
2016,08,16,05,12,13.90
2016,08,16,05,13,13.90
2016,08,16,05,14,13.80
2016,08,16,05,15,13.80
2016,08,16,05,16,13.80
2016,08,16,05,17,13.80
2016,08,16,05,18,13.80
2016,08,16,05,19,13.80
2016,08,16,05,20,13.80
2016,08,16,05,21,13.80
2016,08,16,05,22,13.80
2016,08,16,05,23,13.80
2016,08,16,05,24,13.80
2016,08,16,05,25,13.80
2016,08,16,05,26,13.70
2016,08,16,05,27,13.70
2016,08,16,05,28,13.80
2016,08,16,05,29,13.80
2016,08,16,05,30,13.70
2016,08,16,05,31,13.80
2016,08,16,05,32,13.80
2016,08,16,05,33,13.80
2016,08,16,05,34,13.70
2016,08,16,05,35,13.80
2016,08,16,05,36,13.80
2016,08,16,05,37,13.80
2016,08,16,05,38,13.80
2016,08,16,05,39,13.70
2016,08,16,05,40,13.70
2016,08,16,05,41,13.70
2016,08,16,05,42,13.70
2016,08,16,05,43,13.70
2016,08,16,05,44,13.70
2016,08,16,05,45,13.70
2016,08,16,05,46,13.70
2016,08,16,05,47,13.70
2016,08,16,05,48,13.70
2016,08,16,05,49,13.70
2016,08,16,05,50,13.70
2016,08,16,05,51,13.70
2016,08,16,05,52,13.70
2016,08,16,05,53,13.70
2016,08,16,05,54,13.70
2016,08,16,05,55,13.70
2016,08,16,05,56,13.70
2016,08,16,05,57,13.70
2016,08,16,05,58,13.70
2016,08,16,05,59,13.70
2016,08,16,06,00,13.70
2016,08,16,06,01,13.70
2016,08,16,06,02,13.70
2016,08,16,06,03,13.70
2016,08,16,06,04,13.60
2016,08,16,06,05,13.60
2016,08,16,06,06,13.60
2016,08,16,06,07,13.60
2016,08,16,06,08,13.60
2016,08,16,06,09,13.60
2016,08,16,06,10,13.60
2016,08,16,06,11,13.60
2016,08,16,06,12,13.50
2016,08,16,06,13,13.50
2016,08,16,06,14,13.50
2016,08,16,06,15,13.50
2016,08,16,06,16,13.50
2016,08,16,06,17,13.50
2016,08,16,06,18,13.40
2016,08,16,06,19,13.40
2016,08,16,06,20,13.40
2016,08,16,06,21,13.40
2016,08,16,06,22,13.40
2016,08,16,06,23,13.40
2016,08,16,06,24,13.40
2016,08,16,06,25,13.40
2016,08,16,06,26,13.40
2016,08,16,06,27,13.40
2016,08,16,06,28,13.40
2016,08,16,06,29,13.40
2016,08,16,06,30,13.40
2016,08,16,06,31,13.40
2016,08,16,06,32,13.30
2016,08,16,06,33,13.30
2016,08,16,06,34,13.30
2016,08,16,06,35,13.30
2016,08,16,06,36,13.30
2016,08,16,06,37,13.30
2016,08,16,06,38,13.30
2016,08,16,06,39,13.30
2016,08,16,06,40,13.20
2016,08,16,06,41,13.20
2016,08,16,06,42,13.20
2016,08,16,06,43,13.20
2016,08,16,06,44,13.20
2016,08,16,06,45,13.20
2016,08,16,06,46,13.20
2016,08,16,06,47,13.20
2016,08,16,06,48,13.10
2016,08,16,06,49,13.10
2016,08,16,06,50,13.10
2016,08,16,06,51,13.10
2016,08,16,06,52,13.10
2016,08,16,06,53,13.20
2016,08,16,06,54,13.20
2016,08,16,06,55,13.20
2016,08,16,06,56,13.20
2016,08,16,06,57,13.20
2016,08,16,06,58,13.20
2016,08,16,06,59,13.20
2016,08,16,07,00,13.20
2016,08,16,07,01,13.30
2016,08,16,07,02,13.30
2016,08,16,07,03,13.30
2016,08,16,07,04,13.30
2016,08,16,07,05,13.30
2016,08,16,07,06,13.40
2016,08,16,07,07,13.40
2016,08,16,07,08,13.50
2016,08,16,07,09,13.50
2016,08,16,07,10,13.60
2016,08,16,07,11,13.70
2016,08,16,07,12,13.80
2016,08,16,07,13,13.90
2016,08,16,07,14,13.90
2016,08,16,07,15,14.00
2016,08,16,07,16,14.10
2016,08,16,07,17,14.20
2016,08,16,07,18,14.20
2016,08,16,07,19,14.30
2016,08,16,07,20,14.30
2016,08,16,07,21,14.40
2016,08,16,07,22,14.40
2016,08,16,07,23,14.50
2016,08,16,07,24,14.50
2016,08,16,07,25,14.60
2016,08,16,07,26,14.70
2016,08,16,07,27,14.70
2016,08,16,07,28,14.80
2016,08,16,07,29,14.90
2016,08,16,07,30,15.00
2016,08,16,07,31,15.00
2016,08,16,07,32,15.00
2016,08,16,07,33,15.00
2016,08,16,07,34,15.00
2016,08,16,07,35,15.10
2016,08,16,07,36,15.20
2016,08,16,07,37,15.30
2016,08,16,07,38,15.40
2016,08,16,07,39,15.50
2016,08,16,07,40,15.60
2016,08,16,07,41,15.70
2016,08,16,07,42,15.70
2016,08,16,07,43,15.80
2016,08,16,07,44,15.90
2016,08,16,07,45,16.00
2016,08,16,07,46,16.10
2016,08,16,07,47,16.20
2016,08,16,07,48,16.30
2016,08,16,07,49,16.40
2016,08,16,07,50,16.50
2016,08,16,07,51,16.60
2016,08,16,07,52,16.70
2016,08,16,07,53,16.70
2016,08,16,07,54,16.80
2016,08,16,07,55,16.90
2016,08,16,07,56,17.00
2016,08,16,07,57,17.10
2016,08,16,07,58,17.30
2016,08,16,07,59,17.40
2016,08,16,08,00,17.50
2016,08,16,08,01,17.60
2016,08,16,08,02,17.70
2016,08,16,08,03,17.80
2016,08,16,08,04,17.90
2016,08,16,08,05,18.00
2016,08,16,08,06,18.10
2016,08,16,08,07,18.20
2016,08,16,08,08,18.30
2016,08,16,08,09,18.40
2016,08,16,08,10,18.50
2016,08,16,08,11,18.60
2016,08,16,08,12,18.70
2016,08,16,08,13,18.70
2016,08,16,08,14,18.80
2016,08,16,08,15,18.80
2016,08,16,08,16,18.90
2016,08,16,08,17,18.90
2016,08,16,08,18,18.90
2016,08,16,08,19,18.90
2016,08,16,08,20,18.90
2016,08,16,08,21,18.90
2016,08,16,08,22,18.90
2016,08,16,08,23,18.90
2016,08,16,08,24,18.90
2016,08,16,08,25,18.90
2016,08,16,08,26,18.90
2016,08,16,08,27,18.90
2016,08,16,08,28,18.90
2016,08,16,08,29,18.90
2016,08,16,08,30,18.90
2016,08,16,08,31,18.90
2016,08,16,08,32,18.90
2016,08,16,08,33,18.90
2016,08,16,08,34,18.90
2016,08,16,08,35,19.00
2016,08,16,08,36,19.10
2016,08,16,08,37,19.10
2016,08,16,08,38,19.10
2016,08,16,08,39,19.00
2016,08,16,08,40,19.00
2016,08,16,08,41,18.90
2016,08,16,08,42,18.90
2016,08,16,08,43,18.90
2016,08,16,08,44,18.90
2016,08,16,08,45,18.90
2016,08,16,08,46,18.90
2016,08,16,08,47,18.90
2016,08,16,08,48,19.00
2016,08,16,08,49,19.10
2016,08,16,08,50,19.10
2016,08,16,08,51,19.20
2016,08,16,08,52,19.20
2016,08,16,08,53,19.30
2016,08,16,08,54,19.30
2016,08,16,08,55,19.30
2016,08,16,08,56,19.30
2016,08,16,08,57,19.30
2016,08,16,08,58,19.30
2016,08,16,08,59,19.40
2016,08,16,09,00,19.50
2016,08,16,09,01,19.50
2016,08,16,09,02,19.60
2016,08,16,09,03,19.60
2016,08,16,09,04,19.70
2016,08,16,09,05,19.70
2016,08,16,09,06,19.80
2016,08,16,09,07,19.90
2016,08,16,09,08,19.90
2016,08,16,09,09,19.80
2016,08,16,09,10,19.70
2016,08,16,09,11,19.50
2016,08,16,09,12,19.30
2016,08,16,09,13,19.20
2016,08,16,09,14,19.20
2016,08,16,09,15,19.20
2016,08,16,09,16,19.20
2016,08,16,09,17,19.20
2016,08,16,09,18,19.30
2016,08,16,09,19,19.30
2016,08,16,09,20,19.40
2016,08,16,09,21,19.50
2016,08,16,09,22,19.50
2016,08,16,09,23,19.50
2016,08,16,09,24,19.60
2016,08,16,09,25,19.60
2016,08,16,09,26,19.60
2016,08,16,09,27,19.60
2016,08,16,09,28,19.60
2016,08,16,09,29,19.70
2016,08,16,09,30,19.70
2016,08,16,09,31,19.70
2016,08,16,09,32,19.70
2016,08,16,09,33,19.70
2016,08,16,09,34,19.70
2016,08,16,09,35,19.70
2016,08,16,09,36,19.80
2016,08,16,09,37,19.80
2016,08,16,09,38,19.80
2016,08,16,09,39,19.80
2016,08,16,09,40,19.70
2016,08,16,09,41,19.50
2016,08,16,09,42,19.30
2016,08,16,09,43,19.10
2016,08,16,09,44,19.10
2016,08,16,09,45,19.10
2016,08,16,09,46,19.10
2016,08,16,09,47,19.20
2016,08,16,09,48,19.20
2016,08,16,09,49,19.30
2016,08,16,09,50,19.40
2016,08,16,09,51,19.40
2016,08,16,09,52,19.40
2016,08,16,09,53,19.30
2016,08,16,09,54,19.40
2016,08,16,09,55,19.40
2016,08,16,09,56,19.40
2016,08,16,09,57,19.40
2016,08,16,09,58,19.40
2016,08,16,09,59,19.40
2016,08,16,10,00,19.40
2016,08,16,10,01,19.50
2016,08,16,10,02,19.50
2016,08,16,10,03,19.60
2016,08,16,10,04,19.60
2016,08,16,10,05,19.60
2016,08,16,10,06,19.60
2016,08,16,10,07,19.70
2016,08,16,10,08,19.70
2016,08,16,10,09,19.80
2016,08,16,10,10,19.80
2016,08,16,10,11,19.80
2016,08,16,10,12,19.80
2016,08,16,10,13,19.80
2016,08,16,10,14,19.80
2016,08,16,10,15,19.80
2016,08,16,10,16,19.80
2016,08,16,10,17,19.70
2016,08,16,10,18,19.70
2016,08,16,10,19,19.70
2016,08,16,10,20,19.60
2016,08,16,10,21,19.60
2016,08,16,10,22,19.50
2016,08,16,10,23,19.50
2016,08,16,10,24,19.40
2016,08,16,10,25,19.50
2016,08,16,10,26,19.50
2016,08,16,10,27,19.50
2016,08,16,10,28,19.50
2016,08,16,10,29,19.60
2016,08,16,10,30,19.70
2016,08,16,10,31,19.70
2016,08,16,10,32,19.70
2016,08,16,10,33,19.60
2016,08,16,10,34,19.60
2016,08,16,10,35,19.70
2016,08,16,10,36,19.60
2016,08,16,10,37,19.50
2016,08,16,10,38,19.50
2016,08,16,10,39,19.50
2016,08,16,10,40,19.40
2016,08,16,10,41,19.50
2016,08,16,10,42,19.60
2016,08,16,10,43,19.60
2016,08,16,10,44,19.70
2016,08,16,10,45,19.80
2016,08,16,10,46,19.70
2016,08,16,10,47,19.70
2016,08,16,10,48,19.70
2016,08,16,10,49,19.70
2016,08,16,10,50,19.80
2016,08,16,10,51,19.80
2016,08,16,10,52,19.80
2016,08,16,10,53,19.90
2016,08,16,10,54,19.90
2016,08,16,10,55,19.90
2016,08,16,10,56,20.00
2016,08,16,10,57,20.00
2016,08,16,10,58,20.00
2016,08,16,10,59,19.90
2016,08,16,11,00,20.00
2016,08,16,11,01,20.00
2016,08,16,11,02,20.00
2016,08,16,11,03,20.00
2016,08,16,11,04,20.10
2016,08,16,11,05,20.10
2016,08,16,11,06,20.00
2016,08,16,11,07,20.10
2016,08,16,11,08,20.10
2016,08,16,11,09,20.10
2016,08,16,11,10,20.20
2016,08,16,11,11,20.20
2016,08,16,11,12,20.20
2016,08,16,11,13,20.40
2016,08,16,11,14,20.50
2016,08,16,11,15,20.50
2016,08,16,11,16,20.60
2016,08,16,11,17,20.60
2016,08,16,11,18,20.70
2016,08,16,11,19,20.70
2016,08,16,11,20,20.70
2016,08,16,11,21,20.70
2016,08,16,11,22,20.60
2016,08,16,11,23,20.60
2016,08,16,11,24,20.60
2016,08,16,11,25,20.60
2016,08,16,11,26,20.60
2016,08,16,11,27,20.50
2016,08,16,11,28,20.50
2016,08,16,11,29,20.40
2016,08,16,11,30,20.40
2016,08,16,11,31,20.40
2016,08,16,11,32,20.40
2016,08,16,11,33,20.40
2016,08,16,11,34,20.40
2016,08,16,11,35,20.40
2016,08,16,11,36,20.40
2016,08,16,11,37,20.40
2016,08,16,11,38,20.30
2016,08,16,11,39,20.20
2016,08,16,11,40,20.20
2016,08,16,11,41,20.30
2016,08,16,11,42,20.50
2016,08,16,11,43,20.50
2016,08,16,11,44,20.40
2016,08,16,11,45,20.30
2016,08,16,11,46,20.20
2016,08,16,11,47,20.20
2016,08,16,11,48,20.30
2016,08,16,11,49,20.30
2016,08,16,11,50,20.30
2016,08,16,11,51,20.30
2016,08,16,11,52,20.30
2016,08,16,11,53,20.30
2016,08,16,11,54,20.30
2016,08,16,11,55,20.40
2016,08,16,11,56,20.30
2016,08,16,11,57,20.30
2016,08,16,11,58,20.30
2016,08,16,11,59,20.30
2016,08,16,12,00,20.40
2016,08,16,12,01,20.40
2016,08,16,12,02,20.50
2016,08,16,12,03,20.50
2016,08,16,12,04,20.70
2016,08,16,12,05,20.70
2016,08,16,12,06,20.70
2016,08,16,12,07,20.70
2016,08,16,12,08,20.70
2016,08,16,12,09,20.80
2016,08,16,12,10,20.80
2016,08,16,12,11,20.80
2016,08,16,12,12,20.80
2016,08,16,12,13,20.80
2016,08,16,12,14,20.90
2016,08,16,12,15,20.90
2016,08,16,12,16,20.90
2016,08,16,12,17,20.80
2016,08,16,12,18,20.80
2016,08,16,12,19,20.70
2016,08,16,12,20,20.60
2016,08,16,12,21,20.60
2016,08,16,12,22,20.70
2016,08,16,12,23,20.70
2016,08,16,12,24,20.70
2016,08,16,12,25,20.70
2016,08,16,12,26,20.70
2016,08,16,12,27,20.70
2016,08,16,12,28,20.70
2016,08,16,12,29,20.70
2016,08,16,12,30,20.70
2016,08,16,12,31,20.60
2016,08,16,12,32,20.50
2016,08,16,12,33,20.40
2016,08,16,12,34,20.40
2016,08,16,12,35,20.40
2016,08,16,12,36,20.40
2016,08,16,12,37,20.40
2016,08,16,12,38,20.40
2016,08,16,12,39,20.50
2016,08,16,12,40,20.50
2016,08,16,12,41,20.60
2016,08,16,12,42,20.60
2016,08,16,12,43,20.60
2016,08,16,12,44,20.70
2016,08,16,12,45,20.70
2016,08,16,12,46,20.70
2016,08,16,12,47,20.70
2016,08,16,12,48,20.70
2016,08,16,12,49,20.60
2016,08,16,12,50,20.50
2016,08,16,12,51,20.50
2016,08,16,12,52,20.60
2016,08,16,12,53,20.60
2016,08,16,12,54,20.70
2016,08,16,12,55,20.70
2016,08,16,12,56,20.60
2016,08,16,12,57,20.50
2016,08,16,12,58,20.40
2016,08,16,12,59,20.50
2016,08,16,13,00,20.50
2016,08,16,13,01,20.60
2016,08,16,13,02,20.60
2016,08,16,13,03,20.70
2016,08,16,13,04,20.80
2016,08,16,13,05,20.90
2016,08,16,13,06,21.00
2016,08,16,13,07,21.00
2016,08,16,13,08,21.10
2016,08,16,13,09,21.10
2016,08,16,13,10,21.00
2016,08,16,13,11,21.00
2016,08,16,13,12,21.00
2016,08,16,13,13,21.00
2016,08,16,13,14,21.10
2016,08,16,13,15,21.10
2016,08,16,13,16,21.00
2016,08,16,13,17,20.90
2016,08,16,13,18,20.80
2016,08,16,13,19,20.80
2016,08,16,13,20,20.70
2016,08,16,13,21,20.70
2016,08,16,13,22,20.60
2016,08,16,13,23,20.50
2016,08,16,13,24,20.40
2016,08,16,13,25,20.50
2016,08,16,13,26,20.60
2016,08,16,13,27,20.70
2016,08,16,13,28,20.90
2016,08,16,13,29,21.00
2016,08,16,13,30,21.20
2016,08,16,13,31,21.20
2016,08,16,13,32,21.20
2016,08,16,13,33,21.20
2016,08,16,13,34,21.20
2016,08,16,13,35,21.20
2016,08,16,13,36,21.10
2016,08,16,13,37,21.10
2016,08,16,13,38,21.10
2016,08,16,13,39,21.20
2016,08,16,13,40,21.20
2016,08,16,13,41,21.20
2016,08,16,13,42,21.10
2016,08,16,13,43,21.10
2016,08,16,13,44,21.10
2016,08,16,13,45,21.20
2016,08,16,13,46,21.20
2016,08,16,13,47,21.30
2016,08,16,13,48,21.40
2016,08,16,13,49,21.40
2016,08,16,13,50,21.60
2016,08,16,13,51,21.70
2016,08,16,13,52,21.70
2016,08,16,13,53,21.60
2016,08,16,13,54,21.50
2016,08,16,13,55,21.50
2016,08,16,13,56,21.50
2016,08,16,13,57,21.60
2016,08,16,13,58,21.60
2016,08,16,13,59,21.70
2016,08,16,14,00,21.70
2016,08,16,14,01,21.60
2016,08,16,14,02,21.50
2016,08,16,14,03,21.50
2016,08,16,14,04,21.60
2016,08,16,14,05,21.70
2016,08,16,14,06,21.80
2016,08,16,14,07,21.90
2016,08,16,14,08,22.10
2016,08,16,14,09,22.00
2016,08,16,14,10,21.80
2016,08,16,14,11,21.60
2016,08,16,14,12,21.40
2016,08,16,14,13,21.30
2016,08,16,14,14,21.30
2016,08,16,14,15,21.20
2016,08,16,14,16,21.10
2016,08,16,14,17,20.90
2016,08,16,14,18,20.80
2016,08,16,14,19,20.70
2016,08,16,14,20,20.70
2016,08,16,14,21,20.80
2016,08,16,14,22,21.00
2016,08,16,14,23,21.20
2016,08,16,14,24,21.40
2016,08,16,14,25,21.60
2016,08,16,14,26,21.70
2016,08,16,14,27,21.80
2016,08,16,14,28,21.70
2016,08,16,14,29,21.70
2016,08,16,14,30,21.70
2016,08,16,14,31,21.60
2016,08,16,14,32,21.60
2016,08,16,14,33,21.60
2016,08,16,14,34,21.50
2016,08,16,14,35,21.50
2016,08,16,14,36,21.50
2016,08,16,14,37,21.30
2016,08,16,14,38,21.30
2016,08,16,14,39,21.30
2016,08,16,14,40,21.30
2016,08,16,14,41,21.40
2016,08,16,14,42,21.50
2016,08,16,14,43,21.60
2016,08,16,14,44,21.70
2016,08,16,14,45,21.80
2016,08,16,14,46,21.80
2016,08,16,14,47,21.90
2016,08,16,14,48,21.90
2016,08,16,14,49,21.80
2016,08,16,14,50,21.70
2016,08,16,14,51,21.80
2016,08,16,14,52,21.90
2016,08,16,14,53,22.00
2016,08,16,14,54,22.10
2016,08,16,14,55,22.20
2016,08,16,14,56,22.30
2016,08,16,14,57,22.40
2016,08,16,14,58,22.30
2016,08,16,14,59,22.20
2016,08,16,15,00,22.20
2016,08,16,15,01,22.10
2016,08,16,15,02,21.90
2016,08,16,15,03,21.70
2016,08,16,15,04,21.60
2016,08,16,15,05,21.60
2016,08,16,15,06,21.60
2016,08,16,15,07,21.60
2016,08,16,15,08,21.60
2016,08,16,15,09,21.60
2016,08,16,15,10,21.70
2016,08,16,15,11,21.90
2016,08,16,15,12,22.10
2016,08,16,15,13,22.20
2016,08,16,15,14,22.40
2016,08,16,15,15,22.40
2016,08,16,15,16,22.40
2016,08,16,15,17,22.40
2016,08,16,15,18,22.40
2016,08,16,15,19,22.40
2016,08,16,15,20,22.50
2016,08,16,15,21,22.50
2016,08,16,15,22,22.70
2016,08,16,15,23,22.80
2016,08,16,15,24,22.80
2016,08,16,15,25,23.00
2016,08,16,15,26,23.10
2016,08,16,15,27,23.20
2016,08,16,15,28,23.30
2016,08,16,15,29,23.40
2016,08,16,15,30,23.40
2016,08,16,15,31,23.50
2016,08,16,15,32,23.50
2016,08,16,15,33,23.60
2016,08,16,15,34,23.60
2016,08,16,15,35,23.60
2016,08,16,15,36,23.60
2016,08,16,15,37,23.50
2016,08,16,15,38,23.40
2016,08,16,15,39,23.30
2016,08,16,15,40,23.20
2016,08,16,15,41,23.10
2016,08,16,15,42,23.10
2016,08,16,15,43,23.20
2016,08,16,15,44,23.30
2016,08,16,15,45,23.30
2016,08,16,15,46,23.40
2016,08,16,15,47,23.50
2016,08,16,15,48,23.60
2016,08,16,15,49,23.60
2016,08,16,15,50,23.70
2016,08,16,15,51,23.60
2016,08,16,15,52,23.60
2016,08,16,15,53,23.60
2016,08,16,15,54,23.70
2016,08,16,15,55,23.80
2016,08,16,15,56,23.90
2016,08,16,15,57,23.90
2016,08,16,15,58,23.80
2016,08,16,15,59,23.80
2016,08,16,16,00,23.80
2016,08,16,16,01,23.80
2016,08,16,16,02,23.90
2016,08,16,16,03,23.80
2016,08,16,16,04,23.80
2016,08,16,16,05,23.80
2016,08,16,16,06,23.90
2016,08,16,16,07,23.90
2016,08,16,16,08,24.00
2016,08,16,16,09,24.20
2016,08,16,16,10,24.30
2016,08,16,16,11,24.40
2016,08,16,16,12,24.60
2016,08,16,16,13,24.70
2016,08,16,16,14,24.80
2016,08,16,16,15,24.90
2016,08,16,16,16,24.80
2016,08,16,16,17,24.90
2016,08,16,16,18,24.90
2016,08,16,16,19,25.10
2016,08,16,16,20,25.10
2016,08,16,16,21,25.20
2016,08,16,16,22,25.30
2016,08,16,16,23,25.40
2016,08,16,16,24,25.50
2016,08,16,16,25,25.60
2016,08,16,16,26,25.70
2016,08,16,16,27,25.80
2016,08,16,16,28,25.90
2016,08,16,16,29,26.00
2016,08,16,16,30,26.10
2016,08,16,16,31,26.10
2016,08,16,16,32,26.10
2016,08,16,16,33,26.00
2016,08,16,16,34,25.80
2016,08,16,16,35,25.60
2016,08,16,16,36,25.50
2016,08,16,16,37,25.30
2016,08,16,16,38,25.30
2016,08,16,16,39,25.30
2016,08,16,16,40,25.30
2016,08,16,16,41,25.30
2016,08,16,16,42,25.30
2016,08,16,16,43,25.30
2016,08,16,16,44,25.20
2016,08,16,16,45,25.20
2016,08,16,16,46,25.10
2016,08,16,16,47,25.20
2016,08,16,16,48,25.20
2016,08,16,16,49,25.20
2016,08,16,16,50,25.20
2016,08,16,16,51,25.20
2016,08,16,16,52,25.10
2016,08,16,16,53,25.00
2016,08,16,16,54,25.00
2016,08,16,16,55,24.90
2016,08,16,16,56,24.90
2016,08,16,16,57,24.90
2016,08,16,16,58,24.90
2016,08,16,16,59,24.90
2016,08,16,17,00,24.80
2016,08,16,17,01,24.80
2016,08,16,17,02,24.70
2016,08,16,17,03,24.70
2016,08,16,17,04,24.70
2016,08,16,17,05,24.80
2016,08,16,17,06,24.80
2016,08,16,17,07,24.80
2016,08,16,17,08,24.80
2016,08,16,17,09,24.70
2016,08,16,17,10,24.80
2016,08,16,17,11,24.80
2016,08,16,17,12,24.80
2016,08,16,17,13,24.80
2016,08,16,17,14,24.80
2016,08,16,17,15,24.80
2016,08,16,17,16,24.80
2016,08,16,17,17,24.80
2016,08,16,17,18,24.80
2016,08,16,17,19,24.80